| time (UTC) | temp F | wind direction | speed MPH | gust MPH | rain 1hr in | rain 24hr in | rain mn in | humidity % | barometer mb |
| 20260508134527 | 59 | 311 | 0.0 | 0.0 | 0.00 | 0.45 | 0.00 | 63 | 1018.1 |
| 20260508133031 | 57 | 217 | 0.0 | 0.0 | 0.00 | 0.45 | 0.00 | 75 | 1018.1 |
| 20260508131528 | 56 | 243 | 0.0 | 0.0 | 0.00 | 0.45 | 0.00 | 79 | 1018.1 |
| 20260508130029 | 53 | 160 | 0.0 | 0.0 | 0.00 | 0.45 | 0.00 | 82 | 1018.1 |
| 20260508124533 | 51 | 159 | 0.0 | 0.0 | 0.00 | 0.45 | 0.00 | 90 | 1018.1 |
| 20260508123019 | 46 | 159 | 0.0 | 0.0 | 0.00 | 0.45 | 0.00 | 92 | 1018.0 |
| 20260508121529 | 45 | 159 | 0.0 | 0.0 | 0.00 | 0.45 | 0.00 | 93 | 1017.9 |
| 20260508120008 | 43 | 34 | 0.0 | 0.0 | 0.00 | 0.45 | 0.00 | 93 | 1017.7 |
| 20260508114514 | 42 | 34 | 0.0 | 0.0 | 0.00 | 0.45 | 0.00 | 93 | 1017.3 |
| 20260508113016 | 41 | 34 | 0.0 | 0.0 | 0.00 | 0.45 | 0.00 | 93 | 1017.1 |
| 20260508111522 | 40 | 34 | 0.0 | 0.0 | 0.00 | 0.45 | 0.00 | 92 | 1016.9 |
| 20260508110043 | 40 | 34 | 0.0 | 0.0 | 0.00 | 0.45 | 0.00 | 93 | 1016.8 |
| 20260508104506 | 40 | 34 | 0.0 | 0.0 | 0.00 | 0.45 | 0.00 | 92 | 1016.6 |
| 20260508103014 | 40 | 34 | 0.0 | 0.0 | 0.00 | 0.45 | 0.00 | 92 | 1016.3 |
| 20260508101520 | 40 | 34 | 0.0 | 0.0 | 0.00 | 0.45 | 0.00 | 92 | 1016.1 |
| 20260508100024 | 41 | 34 | 0.0 | 0.0 | 0.00 | 0.45 | 0.00 | 92 | 1015.9 |
| 20260508094526 | 41 | 34 | 0.0 | 0.0 | 0.00 | 0.45 | 0.00 | 92 | 1015.7 |
| 20260508093013 | 41 | 34 | 0.0 | 0.0 | 0.00 | 0.45 | 0.00 | 92 | 1015.6 |
| 20260508091515 | 41 | 20 | 0.0 | 0.0 | 0.00 | 0.45 | 0.00 | 92 | 1015.5 |
| 20260508090026 | 42 | 257 | 0.0 | 0.0 | 0.00 | 0.45 | 0.00 | 92 | 1015.4 |
| 20260508084526 | 42 | 257 | 0.0 | 0.0 | 0.00 | 0.45 | 0.00 | 91 | 1015.4 |
| 20260508083027 | 42 | 257 | 0.0 | 0.0 | 0.00 | 0.45 | 0.00 | 91 | 1015.4 |
| 20260508081510 | 43 | 257 | 0.0 | 0.0 | 0.00 | 0.45 | 0.00 | 91 | 1015.2 |
| 20260508080016 | 43 | 257 | 0.0 | 0.0 | 0.00 | 0.45 | 0.00 | 91 | 1015.2 |
| 20260508074522 | 43 | 257 | 0.0 | 0.0 | 0.00 | 0.45 | 0.00 | 91 | 1015.1 |
| 20260508073029 | 43 | 257 | 0.0 | 0.0 | 0.00 | 0.45 | 0.00 | 91 | 1015.0 |
| 20260508071525 | 44 | 257 | 0.0 | 0.0 | 0.00 | 0.45 | 0.00 | 91 | 1014.9 |
| 20260508070014 | 44 | 257 | 0.0 | 0.0 | 0.00 | 0.45 | 0.00 | 91 | 1014.8 |
| 20260508064518 | 44 | 257 | 0.0 | 0.0 | 0.00 | 0.45 | 0.00 | 91 | 1014.7 |
| 20260508063020 | 44 | 253 | 0.0 | 0.0 | 0.00 | 0.45 | 0.00 | 91 | 1014.8 |
| 20260508061524 | 44 | 253 | 0.0 | 0.0 | 0.00 | 0.45 | 0.00 | 90 | 1014.7 |
| 20260508060032 | 44 | 253 | 0.0 | 0.0 | 0.00 | 0.45 | 0.00 | 90 | 1014.8 |
| 20260508054511 | 45 | 253 | 0.0 | 0.0 | 0.00 | 0.45 | 0.00 | 90 | 1014.7 |
| 20260508053031 | 46 | 253 | 0.0 | 0.0 | 0.00 | 0.45 | 0.00 | 90 | 1014.5 |
| 20260508051524 | 46 | 253 | 0.0 | 0.0 | 0.00 | 0.45 | 0.00 | 90 | 1014.5 |
| 20260508050026 | 46 | 253 | 0.0 | 0.0 | 0.00 | 0.45 | 0.00 | 90 | 1014.2 |
| 20260508044529 | 46 | 253 | 0.0 | 0.0 | 0.00 | 0.45 | 0.00 | 89 | 1014.2 |
| 20260508043013 | 46 | 253 | 0.0 | 0.0 | 0.00 | 0.45 | 0.00 | 89 | 1014.2 |
| 20260508041532 | 47 | 253 | 0.0 | 0.0 | 0.00 | 0.45 | 0.00 | 88 | 1014.1 |
| 20260508040027 | 47 | 338 | 0.0 | 0.0 | 0.00 | 0.45 | 0.00 | 88 | 1014.0 |
| 20260508034532 | 47 | 296 | 0.0 | 0.0 | 0.00 | 0.45 | 0.45 | 87 | 1014.1 |
| 20260508033031 | 48 | 288 | 0.0 | 0.0 | 0.00 | 0.45 | 0.45 | 87 | 1014.0 |
| 20260508031515 | 49 | 16 | 0.0 | 0.0 | 0.00 | 0.45 | 0.45 | 86 | 1013.9 |
| 20260508030025 | 50 | 302 | 0.0 | 0.0 | 0.00 | 0.45 | 0.45 | 85 | 1014.0 |
| 20260508024527 | 50 | 42 | 0.0 | 0.0 | 0.00 | 0.45 | 0.45 | 83 | 1013.7 |
| 20260508023030 | 51 | 348 | 0.0 | 0.0 | 0.00 | 0.45 | 0.45 | 83 | 1013.4 |
| 20260508021528 | 52 | 348 | 0.0 | 1.0 | 0.00 | 0.45 | 0.45 | 80 | 1013.4 |
| 20260508020025 | 53 | 7 | 0.0 | 2.0 | 0.00 | 0.45 | 0.45 | 81 | 1013.0 |
| 20260508014522 | 53 | 240 | 0.0 | 1.0 | 0.00 | 0.45 | 0.45 | 74 | 1012.8 |
| 20260508013027 | 54 | 240 | 0.0 | 0.0 | 0.00 | 0.46 | 0.45 | 74 | 1012.4 |
| 20260508011527 | 55 | 240 | 0.0 | 1.0 | 0.00 | 0.46 | 0.45 | 73 | 1012.1 |
| 20260508010030 | 56 | 240 | 0.0 | 0.0 | 0.00 | 0.47 | 0.45 | 73 | 1011.9 |
| 20260508004533 | 56 | 241 | 0.0 | 1.0 | 0.00 | 0.49 | 0.45 | 69 | 1011.8 |
| 20260508003023 | 57 | 240 | 0.0 | 1.0 | 0.00 | 0.50 | 0.45 | 69 | 1011.7 |
| 20260508001526 | 57 | 168 | 0.0 | 2.0 | 0.00 | 0.51 | 0.45 | 69 | 1011.5 |
| 20260508000032 | 58 | 55 | 0.0 | 1.0 | 0.00 | 0.52 | 0.45 | 70 | 1011.5 |
| 20260507234528 | 59 | 25 | 0.0 | 2.0 | 0.00 | 0.52 | 0.45 | 71 | 1011.4 |
| 20260507233050 | 60 | 19 | 1.0 | 3.0 | 0.00 | 0.54 | 0.45 | 67 | 1011.3 |
| 20260507231530 | 62 | 35 | 0.0 | 3.0 | 0.00 | 0.54 | 0.45 | 66 | 1011.1 |
| 20260507230028 | 63 | 32 | 1.0 | 6.0 | 0.00 | 0.55 | 0.45 | 66 | 1010.7 |
| 20260507224531 | 63 | 17 | 1.0 | 4.0 | 0.00 | 0.55 | 0.45 | 68 | 1010.3 |
| 20260507223013 | 63 | 50 | 0.0 | 3.0 | 0.00 | 0.55 | 0.45 | 71 | 1009.9 |
| 20260507221524 | 63 | 77 | 0.0 | 2.0 | 0.00 | 0.55 | 0.45 | 77 | 1009.5 |
| 20260507220025 | 63 | 134 | 0.0 | 4.0 | 0.00 | 0.55 | 0.45 | 84 | 1009.3 |
| 20260507214527 | 64 | 245 | 0.0 | 2.0 | 0.00 | 0.55 | 0.45 | 83 | 1009.3 |
| 20260507213034 | 64 | 44 | 0.0 | 4.0 | 0.00 | 0.55 | 0.45 | 83 | 1009.2 |
| 20260507211516 | 64 | 47 | 0.0 | 4.0 | 0.44 | 0.55 | 0.45 | 84 | 1009.1 |
| 20260507210021 | 65 | 60 | 2.0 | 6.0 | 0.45 | 0.55 | 0.45 | 82 | 1009.0 |
| 20260507204524 | 65 | 19 | 0.0 | 4.0 | 0.45 | 0.55 | 0.45 | 83 | 1008.8 |
| 20260507203026 | 66 | 45 | 2.0 | 6.0 | 0.45 | 0.55 | 0.45 | 81 | 1008.3 |
| 20260507201529 | 67 | 266 | 2.0 | 6.0 | 0.01 | 0.11 | 0.01 | 80 | 1008.2 |
| 20260507200016 | 67 | 49 | 1.0 | 6.0 | 0.00 | 0.10 | 0.00 | 81 | 1008.3 |
| 20260507194531 | 68 | 214 | 1.0 | 9.0 | 0.00 | 0.10 | 0.00 | 80 | 1007.9 |
| 20260507193029 | 71 | 21 | 2.0 | 7.0 | 0.00 | 0.10 | 0.00 | 78 | 1008.2 |
| 20260507191534 | 71 | 60 | 1.0 | 4.0 | 0.00 | 0.10 | 0.00 | 80 | 1008.2 |
| 20260507190030 | 71 | 13 | 0.0 | 2.0 | 0.00 | 0.10 | 0.00 | 87 | 1008.3 |
| 20260507184518 | 68 | 276 | 0.0 | 0.0 | 0.00 | 0.10 | 0.00 | 86 | 1007.8 |
| 20260507183036 | 70 | 293 | 0.0 | 0.0 | 0.00 | 0.10 | 0.00 | 85 | 1008.3 |
| 20260507181525 | 71 | 283 | 0.0 | 2.0 | 0.00 | 0.10 | 0.00 | 80 | 1008.1 |
| 20260507180034 | 73 | 271 | 1.0 | 5.0 | 0.00 | 0.10 | 0.00 | 76 | 1008.0 |
| 20260507174528 | 73 | 264 | 0.0 | 1.0 | 0.00 | 0.10 | 0.00 | 73 | 1008.0 |
| 20260507173029 | 73 | 265 | 1.0 | 7.0 | 0.00 | 0.10 | 0.00 | 73 | 1008.1 |
| 20260507171539 | 72 | 273 | 0.0 | 4.0 | 0.00 | 0.10 | 0.00 | 77 | 1008.4 |
| 20260507170028 | 72 | 267 | 1.0 | 4.0 | 0.00 | 0.10 | 0.00 | 78 | 1008.6 |
| 20260507164534 | 71 | 265 | 1.0 | 4.0 | 0.00 | 0.11 | 0.00 | 79 | 1008.9 |
| 20260507163029 | 70 | 163 | 1.0 | 3.0 | 0.00 | 0.12 | 0.00 | 85 | 1009.0 |
| 20260507161527 | 70 | 17 | 0.0 | 1.0 | 0.00 | 0.12 | 0.00 | 82 | 1009.3 |
| 20260507160030 | 70 | 232 | 1.0 | 4.0 | 0.00 | 0.13 | 0.00 | 83 | 1009.1 |
| 20260507154526 | 69 | 225 | 1.0 | 3.0 | 0.00 | 0.13 | 0.00 | 85 | 1008.9 |
| 20260507153029 | 67 | 166 | 0.0 | 2.0 | 0.00 | 0.13 | 0.00 | 87 | 1009.0 |
| 20260507151532 | 67 | 240 | 1.0 | 3.0 | 0.00 | 0.15 | 0.00 | 87 | 1009.2 |
| 20260507150024 | 66 | 248 | 1.0 | 2.0 | 0.00 | 0.15 | 0.00 | 90 | 1009.3 |
| 20260507144531 | 64 | 258 | 0.0 | 0.0 | 0.00 | 0.16 | 0.00 | 93 | 1009.4 |
| 20260507143030 | 63 | 244 | 0.0 | 0.0 | 0.00 | 0.16 | 0.00 | 93 | 1009.6 |
| 20260507141527 | 63 | 244 | 0.0 | 0.0 | 0.00 | 0.16 | 0.00 | 93 | 1009.6 |
| 20260507140028 | 63 | 244 | 0.0 | 0.0 | 0.00 | 0.16 | 0.00 | 93 | 1009.5 |